Canadian, TX

2:36 AM CDT on March 30, 2017 (GMT -0500)
Hemphill County

Weather History for KHHF - October, 2011

Change the Weather History Date:

Wednesday, October 12, 2011

  Actual Average (KPPA) Record (KPPA)
Temperature  
Mean Temperature 65 °F -  
Max Temperature 77 °F 73 °F 92 °F (1979)
Min Temperature 53 °F 47 °F 30 °F (1986)
Growing Degree Days 15 (Base 50)    
Moisture  
Dew Point 46 °F    
Average Humidity 59    
Maximum Humidity 100    
Minimum Humidity 21    
Precipitation  
Precipitation 0.00 in - - ()
Sea Level Pressure  
Sea Level Pressure 29.89 in    
Wind  
Wind Speed 6 mph (NNW)    
Max Wind Speed 23 mph    
Max Gust Speed 29 mph    
Visibility 7 miles    
Events Fog    
Averages and records for this station are not official NWS values.
T = Trace of Precipitation, MM = Missing Value Source: NWS Daily Summary

Daily Weather History Graph

Daily Weather History Graph

Search for Another Location

Airport or City:

Trip Planner

Search our weather history database for the weather conditions in past years. The results will help you decide how hot, cold, wet, or windy it might be!

Date:

Astronomy

Oct. 12, 2011 Rise Set
Actual Time 7:45 AM CDT 7:10 PM CDT
Civil Twilight 7:19 AM CDT 7:35 PM CDT
Nautical Twilight 6:50 AM CDT 8:05 PM CDT
Astronomical Twilight 6:20 AM CDT 8:35 PM CDT
Moon 7:17 PM CDT (10/12) 8:18 AM CDT (10/12)
Length of Visible Light 12h 16m
Length of Day
11h 24m
Full, 100% of the Moon is Illuminated
Oct 12
Full
Oct 19
Last Quarter
Oct 26
New
Nov 2
First Quarter
Nov 10
Full

Hourly Weather History & Observations

Time (CDT) Temp. Dew Point Humidity Pressure Visibility Wind Dir Wind Speed Gust Speed Precip Events Conditions
12:15 AM 62.6 °F 59.0 °F 88% 29.81 in 5.0 mi East 3.5 mph - N/A   Clear
12:35 AM 60.8 °F 59.0 °F 94% 29.81 in 5.0 mi Calm Calm - N/A   Scattered Clouds
12:55 AM 60.8 °F 59.0 °F 94% 29.78 in 5.0 mi South 6.9 mph - N/A   Scattered Clouds
1:15 AM 60.8 °F 59.0 °F 94% 29.78 in 5.0 mi Calm Calm - N/A   Clear
1:35 AM 60.8 °F 59.0 °F 94% 29.77 in 5.0 mi SSW 3.5 mph - N/A   Clear
1:55 AM 60.8 °F 59.0 °F 94% 29.77 in 5.0 mi Calm Calm - N/A   Clear
2:35 AM 57.2 °F 55.4 °F 94% 29.79 in 3.0 mi Calm Calm - N/A   Clear
2:55 AM 57.2 °F 55.4 °F 94% 29.79 in 2.5 mi NE 3.5 mph - N/A   Clear
3:15 AM 57.2 °F 55.4 °F 94% 29.79 in 2.5 mi Calm Calm - N/A   Clear
3:35 AM 57.2 °F 55.4 °F 94% 29.80 in 1.0 mi Calm Calm - N/A   Mist
3:55 AM 55.4 °F 53.6 °F 94% 29.80 in 0.2 mi Calm Calm - N/A Fog Fog
4:15 AM 55.4 °F 55.4 °F 100% 29.80 in 0.2 mi Calm Calm - N/A Fog Fog
4:35 AM 53.6 °F 53.6 °F 100% 29.79 in 0.2 mi Calm Calm - N/A Fog Fog
4:55 AM 53.6 °F 51.8 °F 94% 29.80 in 0.2 mi SSW 3.5 mph - N/A Fog Fog
5:15 AM 53.6 °F 53.6 °F 100% 29.81 in 0.2 mi Calm Calm - N/A Fog Fog
5:35 AM 53.6 °F 51.8 °F 94% 29.82 in 0.2 mi Calm Calm - N/A Fog Fog
5:55 AM 53.6 °F 51.8 °F 94% 29.83 in 0.5 mi Calm Calm - N/A Fog Fog
6:15 AM 53.6 °F 53.6 °F 100% 29.84 in 0.2 mi Calm Calm - N/A Fog Fog
6:55 AM 55.4 °F 55.4 °F 100% 29.86 in 2.0 mi NW 4.6 mph - N/A   Overcast
7:15 AM 55.4 °F 55.4 °F 100% 29.87 in 4.0 mi West 4.6 mph - N/A   Mostly Cloudy
7:35 AM 55.4 °F 55.4 °F 100% 29.87 in 4.0 mi Calm Calm - N/A   Scattered Clouds
8:15 AM 53.6 °F 53.6 °F 100% 29.87 in 2.5 mi WNW 3.5 mph - N/A   Clear
8:35 AM 55.4 °F 55.4 °F 100% 29.88 in 3.0 mi Calm Calm - N/A   Clear
9:15 AM 57.2 °F 55.4 °F 94% 29.89 in 5.0 mi NW 5.8 mph - N/A   Clear
9:35 AM 59.0 °F 55.4 °F 88% 29.90 in 7.0 mi NW 6.9 mph - N/A   Clear
9:55 AM 60.8 °F 53.6 °F 77% 29.91 in 10.0 mi NNW 5.8 mph - N/A   Clear
10:15 AM 60.8 °F 51.8 °F 72% 29.92 in 10.0 mi NNW 5.8 mph - N/A   Scattered Clouds
10:55 AM 64.4 °F 51.8 °F 64% 29.93 in 10.0 mi North 6.9 mph - N/A   Clear
11:15 AM 68.0 °F 50.0 °F 52% 29.93 in 10.0 mi North 6.9 mph - N/A   Clear
11:35 AM 71.6 °F 46.4 °F 41% 29.94 in 10.0 mi North 13.8 mph - N/A   Clear
11:55 AM 71.6 °F 44.6 °F 38% 29.95 in 10.0 mi NNE 19.6 mph 25.3 mph N/A   Clear
12:15 PM 71.6 °F 44.6 °F 38% 29.95 in 10.0 mi North 15.0 mph 24.2 mph N/A   Clear
12:35 PM 71.6 °F 42.8 °F 35% 29.95 in 10.0 mi North 19.6 mph 27.6 mph N/A   Clear
12:55 PM 73.4 °F 41.0 °F 31% 29.94 in 10.0 mi North 21.9 mph 26.5 mph N/A   Clear
1:15 PM 75.2 °F 37.4 °F 25% 29.95 in 10.0 mi NNW 21.9 mph 26.5 mph N/A   Clear
1:35 PM 75.2 °F 37.4 °F 25% 29.94 in 10.0 mi North 16.1 mph 24.2 mph N/A   Clear
1:55 PM 77.0 °F 37.4 °F 24% 29.93 in 10.0 mi North 16.1 mph 27.6 mph N/A   Clear
2:15 PM 77.0 °F 35.6 °F 22% 29.92 in 10.0 mi NNW 18.4 mph 23.0 mph N/A   Clear
2:35 PM 77.0 °F 35.6 °F 22% 29.92 in 10.0 mi NNW 23.0 mph 28.8 mph N/A   Clear
2:55 PM 77.0 °F 35.6 °F 22% 29.92 in 10.0 mi NNW 20.7 mph 26.5 mph N/A   Clear
3:15 PM 77.0 °F 35.6 °F 22% 29.91 in 10.0 mi NNW 18.4 mph 24.2 mph N/A   Clear
3:35 PM 77.0 °F 35.6 °F 22% 29.91 in 10.0 mi North 18.4 mph 25.3 mph N/A   Clear
3:55 PM 77.0 °F 35.6 °F 22% 29.91 in 10.0 mi North 16.1 mph 25.3 mph N/A   Clear
4:15 PM 77.0 °F 35.6 °F 22% 29.91 in 10.0 mi North 17.3 mph 23.0 mph N/A   Clear
4:35 PM 77.0 °F 35.6 °F 22% 29.91 in 10.0 mi North 18.4 mph 26.5 mph N/A   Clear
4:55 PM 77.0 °F 33.8 °F 21% 29.91 in 10.0 mi NNW 16.1 mph 25.3 mph N/A   Clear
5:15 PM 77.0 °F 33.8 °F 21% 29.91 in 10.0 mi North 16.1 mph 23.0 mph N/A   Clear
5:35 PM 75.2 °F 33.8 °F 22% 29.92 in 10.0 mi NNW 17.3 mph 28.8 mph N/A   Clear
5:55 PM 73.4 °F 33.8 °F 23% 29.93 in 10.0 mi North 18.4 mph 25.3 mph N/A   Clear
6:15 PM 73.4 °F 35.6 °F 25% 29.93 in 10.0 mi North 16.1 mph 25.3 mph N/A   Clear
6:35 PM 73.4 °F 35.6 °F 25% 29.94 in 10.0 mi North 15.0 mph 20.7 mph N/A   Clear
6:55 PM 71.6 °F 33.8 °F 25% 29.95 in 10.0 mi North 11.5 mph - N/A   Clear
7:15 PM 69.8 °F 35.6 °F 28% 29.95 in 10.0 mi North 9.2 mph - N/A   Clear
7:35 PM 68.0 °F 35.6 °F 30% 29.96 in 10.0 mi NNW 8.1 mph - N/A   Clear
7:55 PM 64.4 °F 35.6 °F 34% 29.97 in 10.0 mi North 5.8 mph - N/A   Clear
8:15 PM 64.4 °F 37.4 °F 37% 29.98 in 10.0 mi North 4.6 mph - N/A   Clear
8:35 PM 62.6 °F 39.2 °F 42% 29.98 in 10.0 mi North 4.6 mph - N/A   Clear
8:55 PM 60.8 °F 41.0 °F 48% 29.98 in 10.0 mi North 4.6 mph - N/A   Clear
9:15 PM 60.8 °F 39.2 °F 45% 29.99 in 10.0 mi Calm Calm - N/A   Clear
9:35 PM 59.0 °F 39.2 °F 48% 30.00 in 10.0 mi Calm Calm - N/A   Clear
9:55 PM 59.0 °F 39.2 °F 48% 30.01 in 10.0 mi North 5.8 mph - N/A   Clear
10:15 PM 59.0 °F 39.2 °F 48% 30.01 in 10.0 mi North 4.6 mph - N/A   Clear
10:35 PM 59.0 °F 39.2 °F 48% 30.02 in 10.0 mi Calm Calm - N/A   Clear
10:55 PM 55.4 °F 39.2 °F 54% 30.03 in 10.0 mi North 3.5 mph - N/A   Clear
11:15 PM 55.4 °F 41.0 °F 58% 30.03 in 10.0 mi Calm Calm - N/A   Clear
11:35 PM 53.6 °F 41.0 °F 62% 30.04 in 10.0 mi Calm Calm - N/A   Clear